Weather in Peremishl

Russia / Kaluga Oblast     54°15′50″N   36°09′35″E
temp.,
°C
wind,
m/s
gust,
m/s
humid.,
%
clouds,
%
prec.,
mm/h
press.,
hPa
HPBL,
m
26 july, mon
mon2600:00+18ese1157100 0.0 102211
03:00+17sse2256100 0.0 102322
06:00+17sse226386 0.0 102326
09:00+19s246296 0.0 1023202
12:00+21ssw1364100 0.0 1023276
15:00+26wsw134636 0.0 10221580
18:00+23s246385 0.1 1022172
21:00+18ssw117919 0.1 102211
27 july, tue
tue2700:00+17sw11812 0.0 102211
03:00+15s118524 0.1 102211
06:00+16sw11913 1.4 102322
09:00+22sw22695 1.7 1022369
12:00+27wsw23484 0.0 10211459
15:00+28w344120 0.0 10202235
18:00+27wsw235027 0.0 1019649
21:00+19nw11765 0.0 101921
28 july, wed
wed2800:00+17sse228414 0.1 101930
03:00+16s22895 0.6 101933
06:00+16sse25867 0.0 1017108
09:00+22s496373 0.0 1016356
12:00+26ssw5851100 0.0 1014993
15:00+22ssw51065100 0.0 1014500
18:00+18sse31095100 0.6 1013403
21:00+18ssw389470 0.6 1011273
29 july, thu
thu2900:00+17sw399815 0.0 1010211
03:00+17wsw39977 0.0 1010180
06:00+17wsw299558 0.0 1010258
09:00+23wnw46665 0.0 1009532
12:00+27w564884 0.0 10091680
15:00+28w5645100 0.0 10091849
18:00+27wsw345282 0.0 10081020
21:00+22s2266100 0.0 100711
30 july, fri
fri3000:00+19wsw3379100 0.4 100844
03:00+17w119697 0.8 100727
06:00+18wnw2496100 0.0 1008159
09:00+19wnw369265 0.1 1009359
12:00+25wnw45510 0.0 10091609
15:00+27wnw55400 0.0 10091996
18:00+25w45475 0.0 10091521
21:00+19wsw22637 0.0 100911